Location: Gleizolles
(44.4833°N, 6.7667°E)
Time: 10:17:22
(UTC+00:00)

Tiros 1 - Pass Details

Date: 04 July 2024
Orbit: 624 x 656 km, 48.4° (Epoch: 20 July)

Event Time Altitude Azimuth Distance (km) Brightness Sun altitude
Rises 00:03:42 0° 292° (WNW) 2,904 10.7 -22.4°
Reaches altitude 10° 00:06:01 10° 291° (WNW) 1,997 9.8 -22.4°
Maximum altitude 00:10:36 81° 206° (SSW) 637 6.9 -22.2°
Enters shadow 00:11:50 49° 126° (SE) 812 7.4 -22.2°
Drops below altitude 10° 00:15:13 10° 118° (ESE) 2,001 - -22.1°
Sets 00:17:32 0° 118° (ESE) 2,911 - -22.0°
